Main page
METAR-TAF:

METAR-TAF

Airports :

Mary International Airport

Mary, Turkmenistan

latitude: 37-36-24N, longitude: 061-54-05E, elevation: 222 m

Current weather observation

The report was made 56 minutes ago, at 01:00 UTC
Calm wind
Temperature 4°C
Humidity 75%
Pressure 1027 hPa
Visibility: 6000 m

METAR: UTAM 180100Z 00000KT 6000 NSC 04/00 Q1027 NOSIG

Time: 06:56 (01:56 UTC)

Forecast

The report was made 3 hours and 26 minutes ago, at 22:30 UTC
Forecast valid from 18 at 00 UTC to 18 at 24 UTC
Wind 4 kt from variable directions
Visibility: 5000 m
Temporary
from 18 at 00 UTC to 18 at 05 UTC
Visibility: 2000 m
Scattered clouds at a height of 700 ft
mist
Becoming
from 18 at 05 UTC to 18 at 06 UTC
Wind 10 kt from the East/Northeast
Visibility 10 km or more
no clouds below 1500 m and no cumulonimbus
Becoming
from 18 at 14 UTC to 18 at 15 UTC
Visibility: 5000 m

TAF: UTAM 172230Z 1800/1824 VRB04KT 5000 NSC 530005 TEMPO 1800/1805 2000 BR SCT007 BECMG 1805/1806 07010KT CAVOK BECMG 1814/1815 5000 NSC

Weather observations and forecasts of more than 4000 airports (METAR and TAF reports).

The available stations are represented by yellow and red dots on the map.

Hover mouse over dot to see the name of the station.

Then click to see weather observations and forecasts.

To change the map : click on the green buttons with a black cross to zoom in, on the green button with a dash to zoom out, or on the green arrows for adjacent maps.


METAR-TAF: